| time (UTC) | temp F | wind direction | speed knots | gust knots | rain 1hr in | rain 24hr in | rain mn in | humidity % | barometer mb |
| 20260505230723 | 34 | 299 | 0.9 | 1.7 | 0.00 | 0.37 | 0.37 | 87 | 1001.1 |
| 20260505230219 | 35 | 292 | 2.6 | 2.6 | 0.12 | 0.37 | 0.37 | 87 | 1001.0 |
| 20260505225715 | 37 | 288 | 2.6 | 2.6 | 0.17 | 0.37 | 0.37 | 87 | 1000.7 |
| 20260505225212 | 37 | 57 | 0.9 | 0.9 | 0.12 | 0.35 | 0.35 | 87 | 1000.6 |
| 20260505224708 | 38 | 77 | 0.9 | 1.7 | 0.19 | 0.34 | 0.34 | 87 | 1000.3 |
| 20260505224206 | 38 | 28 | 3.5 | 5.2 | 0.17 | 0.33 | 0.33 | 87 | 1000.3 |
| 20260505223703 | 39 | 52 | 1.7 | 1.7 | 0.12 | 0.31 | 0.31 | 87 | 999.8 |
| 20260505223159 | 38 | 74 | 0.0 | 0.9 | 0.19 | 0.30 | 0.30 | 87 | 1000.0 |
| 20260505222655 | 39 | 72 | 1.7 | 2.6 | 0.19 | 0.29 | 0.29 | 86 | 1000.1 |
| 20260505222151 | 39 | 58 | 0.9 | 0.9 | 0.12 | 0.27 | 0.27 | 86 | 1000.2 |
| 20260505221649 | 38 | 43 | 1.7 | 2.6 | 0.12 | 0.26 | 0.26 | 86 | 1000.2 |
| 20260505221145 | 38 | 54 | 2.6 | 3.5 | 0.12 | 0.25 | 0.25 | 86 | 999.7 |
| 20260505220643 | 39 | 107 | 2.6 | 2.6 | 0.05 | 0.24 | 0.24 | 86 | 999.7 |
| 20260505220140 | 39 | 68 | 1.7 | 1.7 | 0.05 | 0.24 | 0.24 | 86 | 999.6 |
| 20260505215637 | 39 | 75 | 1.7 | 2.6 | 0.07 | 0.23 | 0.23 | 86 | 999.6 |
| 20260505215136 | 39 | 57 | 2.6 | 3.5 | 0.07 | 0.23 | 0.23 | 86 | 999.8 |
| 20260505214633 | 39 | 80 | 3.5 | 5.2 | 0.00 | 0.22 | 0.22 | 86 | 999.8 |
| 20260505214130 | 40 | 91 | 1.7 | 2.6 | 0.00 | 0.22 | 0.22 | 86 | 999.7 |
| 20260505213628 | 39 | 53 | 2.6 | 3.5 | 0.05 | 0.22 | 0.22 | 86 | 999.8 |
| 20260505213124 | 39 | 42 | 1.7 | 2.6 | 0.05 | 0.22 | 0.22 | 86 | 1000.0 |
| 20260505212620 | 40 | 78 | 0.0 | 0.0 | 0.07 | 0.21 | 0.21 | 87 | 1000.1 |
| 20260505212119 | 40 | 74 | 1.7 | 2.6 | 0.12 | 0.21 | 0.21 | 86 | 1000.1 |
| 20260505211615 | 40 | 86 | 1.7 | 2.6 | 0.05 | 0.20 | 0.20 | 86 | 999.8 |
| 20260505211112 | 40 | 42 | 0.9 | 1.7 | 0.00 | 0.19 | 0.19 | 86 | 999.8 |
| 20260505210609 | 40 | 74 | 3.5 | 5.2 | 0.00 | 0.19 | 0.19 | 86 | 1000.1 |
| 20260505210106 | 39 | 41 | 1.7 | 1.7 | 0.00 | 0.19 | 0.19 | 86 | 1000.2 |
| 20260505205603 | 39 | 10 | 3.5 | 5.2 | 0.00 | 0.19 | 0.19 | 85 | 1000.2 |
| 20260505205101 | 39 | 29 | 1.7 | 2.6 | 0.00 | 0.19 | 0.19 | 86 | 1000.7 |
| 20260505204558 | 40 | 47 | 1.7 | 1.7 | 0.00 | 0.19 | 0.19 | 85 | 1000.8 |
| 20260505204055 | 40 | 64 | 1.7 | 2.6 | 0.00 | 0.19 | 0.19 | 85 | 1000.8 |
| 20260505203551 | 39 | 59 | 2.6 | 5.2 | 0.12 | 0.19 | 0.19 | 85 | 1001.0 |
| 20260505203049 | 40 | 137 | 0.0 | 0.9 | 0.12 | 0.19 | 0.19 | 84 | 1001.1 |
| 20260505202545 | 41 | 62 | 1.7 | 2.6 | 0.00 | 0.17 | 0.17 | 83 | 1000.8 |
| 20260505202041 | 41 | 26 | 3.5 | 5.2 | 0.00 | 0.17 | 0.17 | 83 | 1000.9 |
| 20260505201538 | 40 | 335 | 0.9 | 0.9 | 0.00 | 0.17 | 0.17 | 85 | 1001.0 |
| 20260505201036 | 40 | 8 | 1.7 | 2.6 | 0.00 | 0.17 | 0.17 | 86 | 1001.0 |
| 20260505200533 | 39 | 54 | 0.9 | 1.7 | 0.00 | 0.17 | 0.17 | 85 | 1001.0 |
| 20260505200030 | 40 | 56 | 2.6 | 3.5 | 0.00 | 0.17 | 0.17 | 84 | 1001.1 |
| 20260505195526 | 40 | 69 | 1.7 | 1.7 | 0.00 | 0.17 | 0.17 | 84 | 1001.0 |
| 20260505195023 | 40 | 13 | 3.5 | 5.2 | 0.00 | 0.17 | 0.17 | 84 | 1001.1 |
| 20260505194516 | 40 | 139 | 0.9 | 1.7 | 0.00 | 0.17 | 0.17 | 86 | 1001.1 |
| 20260505194015 | 40 | 26 | 2.6 | 3.5 | 0.00 | 0.17 | 0.17 | 86 | 1001.3 |
| 20260505193513 | 40 | 58 | 2.6 | 3.5 | 0.00 | 0.17 | 0.17 | 87 | 1000.9 |
| 20260505193010 | 40 | 98 | 2.6 | 3.5 | 0.00 | 0.17 | 0.17 | 88 | 1001.3 |
| 20260505192509 | 40 | 18 | 1.7 | 3.5 | 0.00 | 0.17 | 0.17 | 88 | 1001.0 |
| 20260505192006 | 39 | 41 | 0.9 | 0.9 | 0.00 | 0.17 | 0.17 | 88 | 1000.9 |
| 20260505191504 | 39 | 101 | 0.0 | 0.9 | 0.00 | 0.17 | 0.17 | 88 | 1001.1 |
| 20260505191002 | 39 | 93 | 0.9 | 1.7 | 0.00 | 0.17 | 0.17 | 88 | 1001.3 |
| 20260505190456 | 38 | 87 | 0.0 | 0.9 | 0.00 | 0.17 | 0.17 | 89 | 1001.4 |
| 20260505185952 | 38 | 115 | 0.0 | 0.9 | 0.00 | 0.17 | 0.17 | 88 | 1001.5 |
| 20260505185449 | 38 | 61 | 1.7 | 1.7 | 0.00 | 0.17 | 0.17 | 88 | 1001.5 |
| 20260505184945 | 39 | 53 | 1.7 | 1.7 | 0.00 | 0.17 | 0.17 | 88 | 1001.6 |
| 20260505184442 | 38 | 53 | 1.7 | 1.7 | 0.00 | 0.17 | 0.17 | 88 | 1001.5 |
| 20260505183939 | 39 | 78 | 0.0 | 0.9 | 0.00 | 0.17 | 0.17 | 89 | 1001.6 |
| 20260505183436 | 39 | 85 | 0.0 | 0.9 | 0.00 | 0.17 | 0.17 | 89 | 1001.9 |
| 20260505182933 | 39 | 99 | 1.7 | 1.7 | 0.00 | 0.17 | 0.17 | 89 | 1002.0 |
| 20260505182430 | 39 | 130 | 0.9 | 0.9 | 0.00 | 0.17 | 0.17 | 89 | 1001.9 |
| 20260505181926 | 38 | 48 | 1.7 | 2.6 | 0.00 | 0.17 | 0.17 | 89 | 1002.1 |
| 20260505181424 | 39 | 129 | 0.9 | 0.9 | 0.00 | 0.17 | 0.17 | 89 | 1002.0 |
| 20260505180920 | 38 | 96 | 0.9 | 0.9 | 0.00 | 0.17 | 0.17 | 89 | 1002.2 |
| 20260505180416 | 38 | 133 | 0.9 | 0.9 | 0.00 | 0.17 | 0.17 | 89 | 1002.2 |
| 20260505175913 | 38 | 112 | 0.9 | 1.7 | 0.00 | 0.17 | 0.17 | 89 | 1002.3 |
| 20260505175404 | 38 | 117 | 0.9 | 0.9 | 0.00 | 0.17 | 0.17 | 89 | 1002.6 |
| 20260505174901 | 37 | 92 | 1.7 | 2.6 | 0.00 | 0.17 | 0.17 | 89 | 1002.3 |
| 20260505174358 | 37 | 106 | 0.9 | 0.9 | 0.00 | 0.17 | 0.17 | 89 | 1002.0 |
| 20260505173854 | 37 | 43 | 0.9 | 0.9 | 0.00 | 0.17 | 0.17 | 89 | 1002.4 |
| 20260505173351 | 37 | 34 | 1.7 | 1.7 | 0.00 | 0.17 | 0.17 | 89 | 1002.2 |
| 20260505172848 | 37 | 86 | 0.0 | 0.9 | 0.07 | 0.17 | 0.17 | 89 | 1002.3 |
| 20260505172345 | 37 | 79 | 0.0 | 0.9 | 0.07 | 0.17 | 0.17 | 89 | 1002.2 |
| 20260505171845 | 37 | 274 | 0.9 | 1.7 | 0.00 | 0.16 | 0.16 | 89 | 1002.3 |
| 20260505171342 | 38 | 111 | 0.0 | 0.0 | 0.07 | 0.16 | 0.16 | 89 | 1002.4 |
| 20260505170839 | 37 | 121 | 0.9 | 0.9 | 0.07 | 0.16 | 0.16 | 89 | 1002.6 |
| 20260505170335 | 37 | 40 | 1.7 | 1.7 | 0.00 | 0.15 | 0.15 | 88 | 1002.4 |
| 20260505165831 | 37 | 37 | 0.9 | 0.9 | 0.00 | 0.15 | 0.15 | 89 | 1002.6 |
| 20260505165327 | 37 | 347 | 1.7 | 1.7 | 0.00 | 0.15 | 0.15 | 89 | 1002.6 |
| 20260505164823 | 37 | 3 | 2.6 | 2.6 | 0.00 | 0.15 | 0.15 | 89 | 1002.9 |
| 20260505164320 | 37 | 124 | 0.0 | 0.9 | 0.05 | 0.15 | 0.15 | 89 | 1002.9 |
| 20260505163818 | 37 | 54 | 0.9 | 1.7 | 0.05 | 0.15 | 0.15 | 89 | 1002.8 |
| 20260505163316 | 37 | 55 | 1.7 | 1.7 | 0.00 | 0.14 | 0.14 | 89 | 1002.8 |
| 20260505162814 | 37 | 78 | 1.7 | 2.6 | 0.07 | 0.14 | 0.14 | 89 | 1002.8 |
| 20260505162310 | 37 | 49 | 0.9 | 0.9 | 0.12 | 0.14 | 0.14 | 89 | 1002.9 |
| 20260505161808 | 37 | 143 | 0.0 | 0.0 | 0.05 | 0.13 | 0.13 | 89 | 1002.8 |
| 20260505161305 | 37 | 26 | 0.9 | 1.7 | 0.05 | 0.13 | 0.13 | 89 | 1002.8 |
| 20260505160802 | 37 | 89 | 0.0 | 0.0 | 0.00 | 0.12 | 0.12 | 89 | 1002.7 |
| 20260505160300 | 37 | 49 | 1.7 | 1.7 | 0.00 | 0.12 | 0.12 | 89 | 1002.9 |
| 20260505153238 | 37 | 354 | 1.7 | 2.6 | 0.00 | 0.12 | 0.12 | 89 | 1003.0 |
| 20260505152736 | 37 | 35 | 1.7 | 1.7 | 0.07 | 0.12 | 0.12 | 88 | 1002.8 |
| 20260505152232 | 37 | 356 | 0.9 | 1.7 | 0.07 | 0.12 | 0.12 | 89 | 1002.9 |
| 20260505151731 | 37 | 100 | 0.9 | 0.9 | 0.00 | 0.11 | 0.11 | 88 | 1003.0 |
| 20260505151229 | 36 | 36 | 2.6 | 2.6 | 0.00 | 0.11 | 0.11 | 88 | 1002.9 |
| 20260505150726 | 37 | 62 | 0.9 | 1.7 | 0.00 | 0.11 | 0.11 | 88 | 1003.2 |
| 20260505150223 | 37 | 25 | 1.7 | 2.6 | 0.05 | 0.11 | 0.11 | 88 | 1003.3 |
| 20260505140651 | 37 | 89 | 0.0 | 0.0 | 0.00 | 0.09 | 0.09 | 88 | 1003.2 |
| 20260505140148 | 37 | 101 | 0.9 | 0.9 | 0.00 | 0.09 | 0.09 | 88 | 1003.2 |
| 20260505130112 | 37 | 51 | 2.6 | 2.6 | 0.00 | 0.07 | 0.07 | 88 | 1002.6 |
| 20260505124602 | 37 | 13 | 5.2 | 7.0 | 0.00 | 0.07 | 0.07 | 87 | 1002.1 |
| 20260505124058 | 37 | 78 | 3.5 | 5.2 | 0.05 | 0.07 | 0.07 | 88 | 1002.0 |
| 20260505123554 | 38 | 31 | 7.0 | 8.7 | 0.05 | 0.07 | 0.07 | 88 | 1001.6 |
| 20260505123051 | 38 | 358 | 3.5 | 5.2 | 0.07 | 0.06 | 0.06 | 88 | 1001.6 |
| 20260505122547 | 38 | 40 | 4.3 | 7.0 | 0.07 | 0.06 | 0.06 | 87 | 1001.9 |
| 20260505122044 | 38 | 52 | 6.1 | 8.7 | 0.05 | 0.05 | 0.05 | 86 | 1001.5 |
| 20260505121540 | 38 | 342 | 5.2 | 6.1 | 0.05 | 0.05 | 0.05 | 86 | 1001.4 |
| 20260505121037 | 39 | 46 | 3.5 | 5.2 | 0.07 | 0.04 | 0.04 | 85 | 1001.4 |
| 20260505120529 | 39 | 63 | 5.2 | 8.7 | 0.07 | 0.04 | 0.04 | 85 | 1001.0 |
| 20260505120024 | 39 | 18 | 6.1 | 7.8 | 0.07 | 0.03 | 0.03 | 85 | 1001.1 |
| 20260505115519 | 39 | 57 | 4.3 | 7.0 | 0.07 | 0.03 | 0.03 | 85 | 1001.3 |
| 20260505115017 | 39 | 54 | 2.6 | 5.2 | 0.05 | 0.02 | 0.02 | 85 | 1001.0 |
| 20260505114513 | 40 | 16 | 8.7 | 8.7 | 0.12 | 0.02 | 0.02 | 85 | 1001.0 |
| 20260505114010 | 40 | 17 | 7.8 | 9.6 | 0.07 | 0.01 | 0.01 | 84 | 1000.9 |
| 20260505113506 | 41 | 12 | 3.5 | 5.2 | 0.00 | 0.00 | 0.00 | 84 | 1000.7 |
| 20260505113003 | 42 | 346 | 2.6 | 3.5 | 0.00 | 0.00 | 0.00 | 83 | 1000.9 |
| 20260505112459 | 43 | 25 | 1.7 | 1.7 | 0.00 | 0.00 | 0.00 | 82 | 1000.8 |
| 20260505111956 | 42 | 31 | 3.5 | 5.2 | 0.00 | 0.00 | 0.00 | 81 | 1000.7 |
| 20260505111455 | 42 | 51 | 2.6 | 6.1 | 0.00 | 0.00 | 0.00 | 81 | 1000.6 |
| 20260505110952 | 42 | 16 | 3.5 | 5.2 | 0.00 | 0.00 | 0.00 | 81 | 1000.3 |
| 20260505110449 | 43 | 32 | 3.5 | 3.5 | 0.00 | 0.00 | 0.00 | 81 | 1000.3 |
| 20260505101921 | 44 | 78 | 1.7 | 2.6 | 0.00 | 0.00 | 0.00 | 81 | 999.8 |
| 20260505101421 | 45 | 36 | 1.7 | 2.6 | 0.00 | 0.00 | 0.00 | 81 | 999.6 |
| 20260505100916 | 45 | 43 | 0.0 | 0.9 | 0.00 | 0.00 | 0.00 | 83 | 999.6 |
| 20260505100413 | 46 | 346 | 1.7 | 1.7 | 0.00 | 0.00 | 0.00 | 82 | 999.6 |
| 20260505095909 | 46 | 36 | 0.0 | 0.9 | 0.00 | 0.00 | 0.00 | 81 | 999.5 |
| 20260505095406 | 46 | 47 | 1.7 | 1.7 | 0.00 | 0.00 | 0.00 | 81 | 999.1 |
| 20260505094902 | 46 | 60 | 1.7 | 1.7 | 0.00 | 0.00 | 0.00 | 80 | 999.1 |
| 20260505094400 | 46 | 60 | 1.7 | 1.7 | 0.00 | 0.00 | 0.00 | 80 | 999.1 |
| 20260505093855 | 46 | 51 | 0.9 | 1.7 | 0.00 | 0.00 | 0.00 | 80 | 999.6 |
| 20260505093353 | 46 | 56 | 0.0 | 0.9 | 0.00 | 0.00 | 0.00 | 80 | 999.3 |
| 20260505092850 | 46 | 90 | 0.0 | 0.9 | 0.00 | 0.00 | 0.00 | 80 | 999.4 |
| 20260505092348 | 46 | 111 | 0.0 | 0.0 | 0.00 | 0.00 | 0.00 | 81 | 999.3 |
| 20260505091845 | 46 | 61 | 1.7 | 2.6 | 0.00 | 0.00 | 0.00 | 81 | 999.4 |
| 20260505091343 | 46 | 61 | 0.0 | 0.9 | 0.00 | 0.00 | 0.00 | 82 | 999.3 |
| 20260505090841 | 46 | 55 | 0.9 | 0.9 | 0.00 | 0.00 | 0.00 | 82 | 999.3 |
| 20260505090339 | 47 | 353 | 0.0 | 1.7 | 0.00 | 0.00 | 0.00 | 83 | 999.1 |
| 20260505085835 | 47 | 68 | 0.9 | 0.9 | 0.00 | 0.00 | 0.00 | 83 | 999.4 |
| 20260505085333 | 47 | 43 | 0.0 | 0.0 | 0.00 | 0.00 | 0.00 | 83 | 999.5 |
| 20260505084831 | 47 | 68 | 0.0 | 0.0 | 0.00 | 0.00 | 0.00 | 83 | 999.3 |
| 20260505084329 | 47 | 14 | 1.7 | 1.7 | 0.00 | 0.00 | 0.00 | 82 | 999.5 |
| 20260505083826 | 47 | 96 | 0.0 | 0.9 | 0.00 | 0.00 | 0.00 | 82 | 999.4 |
| 20260505083324 | 47 | 104 | 0.0 | 0.9 | 0.00 | 0.00 | 0.00 | 83 | 999.3 |
| 20260505082820 | 47 | 69 | 0.0 | 0.9 | 0.00 | 0.00 | 0.00 | 84 | 999.5 |
| 20260505082311 | 47 | 96 | 0.0 | 0.0 | 0.00 | 0.00 | 0.00 | 84 | 999.6 |
| 20260505081808 | 47 | 120 | 0.0 | 0.0 | 0.00 | 0.00 | 0.00 | 85 | 999.6 |
| 20260505081304 | 47 | 126 | 0.0 | 0.0 | 0.00 | 0.00 | 0.00 | 85 | 999.6 |
| 20260505080801 | 47 | 126 | 0.0 | 0.0 | 0.00 | 0.00 | 0.00 | 85 | 999.6 |
| 20260505080257 | 47 | 126 | 0.0 | 0.0 | 0.00 | 0.00 | 0.00 | 85 | 999.5 |
| 20260505075752 | 47 | 129 | 0.0 | 0.0 | 0.00 | 0.00 | 0.00 | 85 | 999.5 |
| 20260505075250 | 47 | 136 | 0.0 | 0.0 | 0.00 | 0.00 | 0.00 | 85 | 999.5 |
| 20260505074747 | 47 | 148 | 0.0 | 0.0 | 0.00 | 0.00 | 0.00 | 85 | 999.6 |
| 20260505074244 | 48 | 146 | 0.0 | 0.0 | 0.00 | 0.00 | 0.00 | 85 | 999.5 |
| 20260505073742 | 48 | 149 | 0.0 | 0.9 | 0.00 | 0.00 | 0.00 | 85 | 999.6 |
| 20260505073239 | 48 | 146 | 0.9 | 0.9 | 0.00 | 0.00 | 0.00 | 85 | 999.8 |
| 20260505072736 | 48 | 154 | 0.0 | 0.0 | 0.00 | 0.00 | 0.00 | 85 | 1000.0 |
| 20260505072232 | 48 | 146 | 0.9 | 1.7 | 0.00 | 0.00 | 0.00 | 85 | 1000.2 |
| 20260505071727 | 47 | 145 | 0.9 | 0.9 | 0.00 | 0.00 | 0.00 | 85 | 1000.0 |
| 20260505071225 | 47 | 148 | 0.0 | 0.0 | 0.00 | 0.00 | 0.00 | 85 | 1000.2 |
| 20260505070722 | 47 | 146 | 0.9 | 0.9 | 0.00 | 0.00 | 0.00 | 85 | 1000.3 |
| 20260505070218 | 47 | 147 | 0.9 | 0.9 | 0.00 | 0.00 | 0.00 | 85 | 1000.2 |
| 20260505065714 | 47 | 137 | 0.9 | 0.9 | 0.00 | 0.00 | 0.00 | 86 | 999.7 |
| 20260505065211 | 47 | 149 | 0.9 | 1.7 | 0.00 | 0.00 | 0.00 | 86 | 1000.1 |
| 20260505064708 | 47 | 146 | 0.9 | 0.9 | 0.00 | 0.00 | 0.00 | 86 | 1000.1 |
| 20260505064206 | 48 | 158 | 0.0 | 0.9 | 0.00 | 0.00 | 0.00 | 86 | 1000.2 |
| 20260505063703 | 48 | 144 | 0.9 | 0.9 | 0.00 | 0.00 | 0.00 | 86 | 1000.1 |
| 20260505063159 | 47 | 149 | 0.9 | 0.9 | 0.00 | 0.00 | 0.00 | 86 | 1000.2 |
| 20260505062655 | 47 | 149 | 0.9 | 0.9 | 0.00 | 0.00 | 0.00 | 86 | 1000.1 |
| 20260505062153 | 47 | 149 | 0.0 | 0.0 | 0.00 | 0.00 | 0.00 | 86 | 1000.3 |
| 20260505061650 | 47 | 152 | 0.9 | 0.9 | 0.00 | 0.00 | 0.00 | 85 | 1000.1 |
| 20260505061148 | 47 | 146 | 0.9 | 1.7 | 0.00 | 0.00 | 0.00 | 85 | 1000.2 |
| 20260505060645 | 47 | 164 | 2.6 | 3.5 | 0.00 | 0.00 | 0.00 | 85 | 1000.2 |
| 20260505060142 | 47 | 152 | 0.9 | 1.7 | 0.00 | 0.00 | 0.00 | 85 | 1000.4 |
| 20260505055637 | 47 | 150 | 0.9 | 0.9 | 0.00 | 0.12 | 0.12 | 85 | 1000.3 |
| 20260505055134 | 47 | 172 | 0.9 | 0.9 | 0.00 | 0.12 | 0.12 | 85 | 1000.2 |
| 20260505054631 | 47 | 178 | 0.9 | 0.9 | 0.00 | 0.12 | 0.12 | 85 | 1000.1 |
| 20260505054129 | 47 | 150 | 0.9 | 1.7 | 0.00 | 0.12 | 0.12 | 85 | 999.7 |
| 20260505053627 | 47 | 157 | 1.7 | 1.7 | 0.00 | 0.12 | 0.12 | 85 | 1000.1 |
| 20260505053123 | 47 | 140 | 0.9 | 0.9 | 0.00 | 0.12 | 0.12 | 84 | 1000.1 |
| 20260505052620 | 47 | 159 | 1.7 | 1.7 | 0.00 | 0.12 | 0.12 | 84 | 1000.3 |
| 20260505052117 | 47 | 148 | 0.9 | 0.9 | 0.00 | 0.12 | 0.12 | 84 | 1000.1 |
| 20260505051614 | 47 | 142 | 0.9 | 0.9 | 0.00 | 0.12 | 0.12 | 84 | 1000.4 |
| 20260505051112 | 47 | 168 | 0.0 | 0.0 | 0.05 | 0.12 | 0.12 | 84 | 1000.3 |
| 20260505050610 | 47 | 170 | 0.9 | 0.9 | 0.05 | 0.12 | 0.12 | 84 | 1000.7 |
| 20260505050108 | 47 | 166 | 0.0 | 0.0 | 0.07 | 0.11 | 0.11 | 84 | 1000.7 |
| 20260505041537 | 48 | 263 | 1.7 | 1.7 | 0.05 | 0.10 | 0.10 | 82 | 1000.7 |
| 20260505041035 | 48 | 180 | 0.0 | 0.9 | 0.12 | 0.10 | 0.10 | 81 | 1000.8 |
| 20260505040532 | 48 | 256 | 1.7 | 2.6 | 0.19 | 0.09 | 0.09 | 81 | 1000.7 |
| 20260505040029 | 48 | 242 | 2.6 | 2.6 | 0.12 | 0.08 | 0.08 | 79 | 1000.7 |
| 20260505035525 | 49 | 223 | 5.2 | 7.8 | 0.05 | 0.06 | 0.06 | 77 | 1000.4 |
| 20260505035022 | 51 | 269 | 3.5 | 5.2 | 0.12 | 0.06 | 0.06 | 74 | 1000.4 |
| 20260505034518 | 52 | 325 | 0.9 | 1.7 | 0.07 | 0.05 | 0.05 | 69 | 1000.3 |
| 20260505034015 | 53 | 176 | 0.0 | 0.9 | 0.00 | 0.04 | 0.04 | 65 | 1000.2 |
| 20260505033513 | 52 | 48 | 4.3 | 7.0 | 0.00 | 0.04 | 0.04 | 61 | 1000.0 |
| 20260505033011 | 53 | 297 | 1.7 | 2.6 | 0.00 | 0.04 | 0.04 | 62 | 1000.0 |
| 20260505032508 | 53 | 54 | 0.9 | 0.9 | 0.00 | 0.04 | 0.04 | 62 | 999.7 |
| 20260505032004 | 53 | 149 | 0.0 | 0.0 | 0.00 | 0.04 | 0.04 | 62 | 999.5 |
| 20260505031501 | 53 | 207 | 0.0 | 0.9 | 0.00 | 0.04 | 0.04 | 61 | 999.4 |
| 20260505030958 | 53 | 216 | 0.0 | 0.9 | 0.00 | 0.04 | 0.04 | 61 | 999.4 |
| 20260505030455 | 53 | 233 | 1.7 | 1.7 | 0.00 | 0.04 | 0.04 | 61 | 999.4 |
| 20260505025950 | 53 | 320 | 0.9 | 1.7 | 0.00 | 0.04 | 0.04 | 60 | 999.3 |
| 20260505025447 | 53 | 5 | 2.6 | 5.2 | 0.00 | 0.04 | 0.04 | 61 | 999.3 |
| 20260505024946 | 53 | 60 | 0.9 | 0.9 | 0.00 | 0.04 | 0.04 | 61 | 999.1 |
| 20260505024442 | 53 | 91 | 0.0 | 0.9 | 0.00 | 0.04 | 0.04 | 61 | 999.0 |
| 20260505023939 | 53 | 114 | 0.0 | 0.0 | 0.00 | 0.04 | 0.04 | 61 | 998.9 |
| 20260505023436 | 53 | 123 | 0.9 | 0.9 | 0.00 | 0.04 | 0.04 | 60 | 999.0 |
| 20260505022933 | 53 | 122 | 0.0 | 0.0 | 0.00 | 0.04 | 0.04 | 60 | 998.8 |
| 20260505022431 | 53 | 34 | 1.7 | 1.7 | 0.00 | 0.04 | 0.04 | 60 | 998.8 |
| 20260505021928 | 53 | 109 | 0.0 | 0.0 | 0.00 | 0.04 | 0.04 | 61 | 998.9 |
| 20260505021425 | 53 | 46 | 1.7 | 2.6 | 0.00 | 0.04 | 0.04 | 60 | 998.8 |
| 20260505020920 | 53 | 102 | 0.0 | 0.0 | 0.00 | 0.04 | 0.04 | 61 | 998.9 |
| 20260505020416 | 53 | 96 | 0.0 | 0.0 | 0.00 | 0.04 | 0.04 | 61 | 999.0 |
| 20260505015913 | 53 | 298 | 1.7 | 1.7 | 0.00 | 0.04 | 0.04 | 60 | 999.3 |
| 20260505015410 | 53 | 75 | 0.0 | 0.0 | 0.00 | 0.04 | 0.04 | 60 | 998.7 |
| 20260505014907 | 53 | 48 | 0.9 | 0.9 | 0.00 | 0.04 | 0.04 | 60 | 998.4 |
| 20260505014404 | 54 | 113 | 0.0 | 0.0 | 0.00 | 0.04 | 0.04 | 59 | 998.3 |
| 20260505013901 | 53 | 40 | 1.7 | 2.6 | 0.00 | 0.04 | 0.04 | 57 | 998.3 |
| 20260505013358 | 53 | 90 | 0.0 | 0.0 | 0.00 | 0.04 | 0.04 | 60 | 998.3 |
| 20260505012856 | 53 | 9 | 1.7 | 2.6 | 0.00 | 0.04 | 0.04 | 61 | 998.3 |
| 20260505012354 | 52 | 117 | 0.9 | 0.9 | 0.00 | 0.04 | 0.04 | 61 | 998.2 |
| 20260505011850 | 52 | 54 | 1.7 | 2.6 | 0.00 | 0.04 | 0.04 | 63 | 998.3 |
| 20260505011347 | 52 | 343 | 2.6 | 5.2 | 0.00 | 0.04 | 0.04 | 66 | 998.2 |
| 20260505010843 | 52 | 6 | 4.3 | 5.2 | 0.05 | 0.04 | 0.04 | 65 | 998.5 |
| 20260505010338 | 52 | 3 | 2.6 | 2.6 | 0.05 | 0.04 | 0.04 | 63 | 998.7 |
| 20260505005835 | 53 | 5 | 2.6 | 3.5 | 0.00 | 0.03 | 0.03 | 61 | 998.5 |
| 20260505005332 | 54 | 308 | 0.9 | 1.7 | 0.07 | 0.03 | 0.03 | 60 | 998.7 |
| 20260505004830 | 55 | 68 | 4.3 | 6.1 | 0.07 | 0.03 | 0.03 | 53 | 998.4 |
| 20260505004325 | 56 | 294 | 6.1 | 7.8 | 0.00 | 0.02 | 0.02 | 50 | 998.5 |
| 20260505003823 | 57 | 348 | 7.0 | 7.8 | 0.00 | 0.02 | 0.02 | 46 | 998.4 |
| 20260505003320 | 58 | 323 | 5.2 | 8.7 | 0.00 | 0.02 | 0.02 | 43 | 998.3 |
| 20260505002816 | 57 | 216 | 4.3 | 7.8 | 0.00 | 0.02 | 0.02 | 43 | 998.3 |
| 20260505002313 | 57 | 297 | 7.8 | 11.3 | 0.00 | 0.02 | 0.02 | 46 | 998.2 |
| 20260505001812 | 57 | 6 | 1.7 | 2.6 | 0.07 | 0.02 | 0.02 | 48 | 997.8 |
| 20260505001308 | 57 | 7 | 2.6 | 2.6 | 0.07 | 0.02 | 0.02 | 50 | 997.7 |
| 20260505000806 | 57 | 42 | 1.7 | 1.7 | 0.05 | 0.01 | 0.01 | 50 | 997.8 |
| 20260505000303 | 57 | 345 | 3.5 | 3.5 | 0.05 | 0.01 | 0.01 | 45 | 997.8 |
| 20260504235800 | 58 | 124 | 0.0 | 0.9 | 0.05 | 0.01 | 0.01 | 48 | 997.7 |
| 20260504235256 | 59 | 295 | 3.5 | 6.1 | 0.00 | 0.00 | 0.00 | 40 | 997.7 |
| 20260504234753 | 59 | 49 | 7.0 | 13.9 | 0.00 | 0.00 | 0.00 | 39 | 997.8 |
| 20260504234251 | 62 | 292 | 5.2 | 7.0 | 0.00 | 0.00 | 0.00 | 35 | 997.8 |
| 20260504233747 | 62 | 254 | 7.0 | 11.3 | 0.00 | 0.00 | 0.00 | 30 | 997.2 |
| 20260504233243 | 63 | 319 | 5.2 | 7.8 | 0.00 | 0.00 | 0.00 | 30 | 997.1 |
| 20260504232740 | 63 | 340 | 3.5 | 6.1 | 0.00 | 0.00 | 0.00 | 29 | 997.0 |
| 20260504232237 | 63 | 358 | 7.8 | 9.6 | 0.00 | 0.00 | 0.00 | 29 | 996.9 |
| 20260504231734 | 63 | 0 | 7.0 | 7.8 | 0.00 | 0.00 | 0.00 | 29 | 997.0 |
| 20260504231230 | 63 | 36 | 9.6 | 13.0 | 0.00 | 0.00 | 0.00 | 29 | 997.0 |